Location: Vancouver
(49.2500°N, 123.1330°W)
Time: 11:13:59
(UTC-07:00)

BREEZE-M DEB (TANK) - Visible Passes

Search period start: 30 July 2015 00:00
Search period end: 09 August 2015 00:00
Orbit: 271 x 13519 km, 49.6° (Epoch: 30 July)

Date Brightness Start Highest point End Pass type
(mag) Time Alt. Az. Time Alt. Az. Time Alt. Az.
30 Jul 6.3 02:29:49 10° NW 03:26:09 35° WSW 03:37:06 19° SSW visible
30 Jul 6.8 22:35:31 10° W 00:25:46 78° SW 00:44:51 15° SE visible
31 Jul 6.9 04:20:58 10° NW 04:46:45 16° W 04:55:46 10° WSW visible
31 Jul 7.5 19:01:26 10° SW 21:02:08 90° SSE 21:45:52 10° E visible
01 Aug 6.3 00:29:09 10° WNW 01:53:42 57° WSW 02:06:09 26° S visible
01 Aug 7.2 20:39:58 10° W 22:43:39 88° SSW 23:12:30 10° ESE visible
02 Aug 6.5 02:21:11 10° NW 03:17:00 33° W 03:27:28 20° SW visible
02 Aug 6.6 22:27:35 10° W 00:17:20 76° SW 00:35:15 21° SE visible
03 Aug 7.1 04:13:38 10° NW 04:37:12 14° W 04:45:23 10° W visible
03 Aug 7.5 18:53:02 10° WSW 20:54:06 90° N 21:37:47 10° E visible
04 Aug 6.3 00:20:36 10° WNW 01:44:45 54° WSW 01:56:36 29° S visible
04 Aug 7.1 20:31:51 10° W 22:35:25 87° SSW 23:04:17 10° ESE visible
05 Aug 6.7 02:12:19 10° NW 03:07:36 31° W 03:17:57 20° SW visible
05 Aug 6.6 22:19:22 10° WNW 00:08:39 73° SW 00:25:46 25° SE visible
06 Aug 7.3 04:06:35 10° NW 04:27:24 13° WNW 04:34:14 10° W visible
06 Aug 7.5 18:44:30 10° WSW 20:45:54 89° N 21:29:30 10° E visible
07 Aug 6.4 00:11:44 10° WNW 01:35:33 51° WSW 01:47:08 31° SSW visible
07 Aug 7.0 20:23:33 10° W 22:26:58 86° SSW 22:54:58 13° ESE visible
08 Aug 6.8 02:03:14 10° NW 02:57:57 29° W 03:08:32 19° SW visible
